Weather in Velikiy Ustug

Russia / Vologda Oblast     60°45′37″N   46°18′19″E
temp.,
°C
wind,
m/s
gust,
m/s
humid.,
%
clouds,
%
prec.,
mm/h
press.,
hPa
HPBL,
m
22 april, thu
thu2200:00+2sse51395100 0.1 1014751
03:00+2sse51297100 0.3 1013610
06:00+2sse41297100 1.2 1013595
09:00+2s41197100 3.2 1013534
12:00+4s498799 0.1 1014904
15:00+7ssw5973100 0.3 10141146
18:00+7s4978100 0.3 1015805
21:00+4s41294100 0.3 1016410
23 april, fri
fri2300:00+3s4119359 0.0 1017425
03:00+2s279729 0.0 1018151
06:00+3sse259513 0.0 1019150
09:00+10s36745 0.0 1019600
12:00+13ssw575989 0.2 10191463
15:00+14s585446 0.7 10181710
18:00+13sse4106114 0.3 1018730
21:00+10sse41170100 0.3 1019408
24 april, sat
sat2400:00+9sse41370100 0.0 1019544
03:00+8se3107650 0.0 1018378
06:00+8se3977100 0.0 1017385
09:00+11se596512 0.0 1017874
12:00+12se675362 0.3 10151781
15:00+12se5849100 0.4 10142073
18:00+10ese5956100 0.0 10121105
21:00+8ese41070100 0.0 1011789
25 april, sun
sun2500:00+7e41076100 0.0 1009741
03:00+6e4891100 0.4 10071056
06:00+5e4995100 1.2 10051012
09:00+5e51096100 2.0 1004948
12:00+5e4996100 0.6 1003907
15:00+5e4897100 1.3 1002863
18:00+4e3797100 0.8 1001920
21:00+4ese2594100 1.3 1001344
26 april, mon
mon2600:00+3sse2493100 0.1 1001369
03:00+1se1296100 0.1 100161
06:00+2sw1195100 0.1 1001187
09:00+3wsw2398100 0.4 1001245
12:00+2sw2699100 2.3 1002324
15:00+2wsw41197100 3.8 1003474
18:00+2wsw41197100 1.7 1004757
21:00+2wsw51197100 3.3 1004816